Погода в Спасском-Городище

Россия / Владимирская область     56°21′50″N   40°31′51″E
темп.,
°C
ветер,
м/с
пор.,
м/с
влажн.,
%
обл.,
%
осадки,
мм/ч
давл.,
гПа
погр.,
м
26 сентября, вс
вс2600:00+8ю4995100 1.9 1003478
03:00+8ююв3897100 3.8 1002512
06:00+8ю2598100 2.8 1001259
09:00+8всв2396100 6.8 1002126
12:00+9св3496100 1.1 1003324
15:00+9св4896100 1.9 1006500
18:00+9ссв4895100 0.3 1009457
21:00+9ссв5994100 0.4 1011499
27 сентября, пн
пн2700:00+8ссв5119396 0.1 1014537
03:00+7с51194100 0.1 1016364
06:00+7с51195100 0.1 1017527
09:00+8с51193100 0.1 1018642
12:00+9с6987100 0.3 1020827
15:00+8ссв5990100 0.3 1021962
18:00+8ссв51091100 0.1 1022835
21:00+7св6990100 0.4 10241073
28 сентября, вт
вт2800:00+5св5987100 0.3 1025846
03:00+5св4990100 0.3 1027682
06:00+5св4988100 0.1 1028622
09:00+6всв587925 0.1 1030690
12:00+9всв46595 0.0 10301025
15:00+10св454856 0.0 10311199
18:00+6ссв35685 0.0 103280
21:00+4св22765 0.0 103326
29 сентября, ср
ср2900:00+3ссв22815 0.0 103422
03:00+2с22830 0.0 103432
06:00+1с34865 0.0 103558
09:00+5ссв356835 0.0 1035297
12:00+10ссв34525 0.0 1035853
15:00+11ссв34505 0.0 10341011
18:00+7с22705 0.0 103411
21:00+5ссз227860 0.0 103510
30 сентября, чт
чт3000:00+6сз2273100 0.0 103555
03:00+7сз2576100 0.0 1034130
06:00+7сз268269 0.0 1035194
09:00+8ссз3677100 0.0 1035297
12:00+11ссз357057 0.0 1034621
15:00+12ссз346989 0.0 1034946
18:00+10сз377876 0.0 1034245
21:00+9зсз368593 0.0 1034125